Regional Weather Roundup
Issued by NWS Raleigh/Durham, NC

Home | Current Version | Previous Version | Text Only | Print | Product List | Glossary On
Versions: 1 2 3 4 5 6 7 8 9 10 11 12 13 14 15 16 17 18 19 20 21 22 23 24 25 26 27 28 29 30 31 32 33 34 35 36 37 38 39 40 41 42 43 44 45 46 47 48 49 50
000
ASUS42 KRAH 062110
RWRRAH
NORTH CAROLINA WEATHER ROUNDUP
NATIONAL WEATHER SERVICE RALEIGH NC
400 PM EST FRI MAR 06 2015

NOTE: "FAIR" INDICATES FEW OR NO CLOUDS BELOW 12,000 FEET WITH NO
SIGNIFICANT WEATHER AND/OR OBSTRUCTIONS TO VISIBILITY.

NCZ001-053-055-056-065-067-062200-
WESTERN NORTH CAROLINA

CITY           SKY/WX    TMP DP  RH WIND       PRES   REMARKS
ASHEVILLE      SUNNY     44  15  31 CALM      30.29F
JEFFERSON      SUNNY     38   4  25 NW10G18   30.24S WCI  30
MORGANTON      SUNNY     42  10  26 N3        30.38F
HICKORY        SUNNY     40  11  30 VRB5      30.35F
RUTHERFORDTON  SUNNY     43  14  30 S8        30.36R
MOUNT AIRY     SUNNY     38  10  31 CALM      30.37F
BOONE          SUNNY     36  15  42 NW14G22   30.26R WCI  27
$$

NCZ021-022-025-041-071-084-088-062200-
CENTRAL NORTH CAROLINA

CITY           SKY/WX    TMP DP  RH WIND       PRES   REMARKS
CHARLOTTE      MOSUNNY   43  15  32 VRB5      30.39S
GREENSBORO     MOSUNNY   35  16  45 CALM      30.38F
WINSTON-SALEM  SUNNY     36  13  38 NE6       30.39F WCI  31
RALEIGH-DURHAM MOSUNNY   36  11  35 NE6       30.42F WCI  31
FORT BRAGG     SUNNY     41  10  28 N8        30.40S
FAYETTEVILLE   SUNNY     41  13  31 NE9       30.40F
BURLINGTON     SUNNY     37  12  35 VRB6      30.40F WCI  32
LAURINBURG     SUNNY     43  15  32 N9        30.40F
$$

NCZ011-015-027-028-043-044-047-080-103-062200-
NORTHEASTERN NORTH CAROLINA

CITY           SKY/WX    TMP DP  RH WIND       PRES   REMARKS
ROCKY MT-WILSO SUNNY     37  14  38 N10       30.43F WCI  30
GREENVILLE     SUNNY     37  19  48 N7        30.42S WCI  32
WASHINGTON     SUNNY     37  21  52 N10       30.42S WCI  29
ELIZABETH CITY SUNNY     32  20  61 N13       30.44S WCI  22
MANTEO         CLOUDY    28  23  81 N17G28    30.42F WCI  16
CAPE HATTERAS  CLOUDY    30  26  85 N13G28    30.37F WCI  20
$$

NCZ078-087-090-091-093-098-101-062200-
SOUTHEASTERN NORTH CAROLINA

CITY           SKY/WX    TMP DP  RH WIND       PRES   REMARKS
LUMBERTON      SUNNY     43  18  36 NE7G17    30.40S
GOLDSBORO      SUNNY     38  21  51 N8        30.40S WCI  32
KINSTON        SUNNY     37  21  52 N9        30.42F WCI  31
KENANSVILLE    SUNNY     38  19  45 N7        30.41F WCI  33
NEW BERN       SUNNY     40  20  44 N9        30.40S WCI  34
CHERRY POINT   CLOUDY    38  20  48 N13       30.39F WCI  30
BEAUFORT       CLOUDY    36  20  52 N16       30.38S WCI  26
JACKSONVILLE   CLOUDY    41  23  48 NW14      30.38S
WILMINGTON     CLOUDY    43  24  47 N12       30.37S
$$



USA.gov is the U.S. government's official web portal to all federal, state and local government web resources and services.